Simultaneous Nadir Overpasses (SNOs) Predictions

Prediction of SNOs between FY3D and TERRA Satellite Orbit:

Table of predicted SNOs for the next 14.0 days since TLE Epoch: 4/13/2019
Index Date (FY3D) Time (FY3D) Lat,Lon (FY3D) SZA (FY3D ) Date (TERRA) Time (TERRA) Lat,Lon (TERRA) SZA (TERRA ) Distance(km) Time Diff (sec)
1 04/13/2019 13:32:44 68.87, -23.96 59.70 04/13/2019 13:33:29 68.87, -23.97 59.69 0.91 45
2 04/13/2019 14:23:25 -68.76, 143.52 120.44 04/13/2019 14:22:59 -68.75, 143.52 120.44 0.36 26
3 04/16/2019 05:49:12 68.88, 91.91 58.74 04/16/2019 05:49:59 68.87, 91.90 58.72 1.86 47
4 04/16/2019 06:39:53 -68.77,-100.62 121.39 04/16/2019 06:39:29 -68.76,-100.60 121.40 1.17 24
5 04/16/2019 07:30:19 67.69, 68.07 57.52 04/16/2019 07:29:12 67.76, 65.84 57.60 94.04 67
6 04/18/2019 22:05:40 68.90,-152.23 57.81 04/18/2019 22:06:29 68.90,-152.18 57.82 2.13 49
7 04/18/2019 22:56:20 -68.73, 15.32 122.37 04/18/2019 22:56:00 -68.74, 15.25 122.36 3.38 20
8 04/18/2019 23:46:49 67.81,-176.20 56.70 04/18/2019 23:45:41 67.85,-178.18 56.75 83.12 68
9 04/21/2019 14:22:07 68.86, -36.29 56.85 04/21/2019 14:23:01 68.87, -36.36 56.86 2.91 54
10 04/21/2019 15:12:48 -68.74, 131.18 123.28 04/21/2019 15:12:31 -68.77, 131.15 123.26 3.21 17
11 04/21/2019 16:03:19 67.93, -60.47 55.90 04/21/2019 16:02:10 67.98, -62.16 55.95 70.63 69
12 04/24/2019 06:38:34 68.87, 79.56 55.97 04/24/2019 06:39:32 68.87, 79.50 55.96 2.48 58
13 04/24/2019 07:29:15 -68.75,-112.96 124.16 04/24/2019 07:29:02 -68.77,-112.98 124.15 1.82 13
14 04/24/2019 08:19:48 68.05, 55.26 55.13 04/24/2019 08:18:39 68.09, 53.84 55.17 58.95 69
15 04/26/2019 22:55:02 68.89,-164.58 55.12 04/26/2019 22:56:04 68.90,-164.59 55.13 1.64 62
16 04/26/2019 23:45:43 -68.77, 2.90 125.02 04/26/2019 23:45:35 -68.75, 2.86 125.04 2.66 8
17 04/27/2019 00:36:19 68.23, 170.91 54.44 04/27/2019 00:35:08 68.30, 169.95 54.50 40.30 71




NCC Satellite Simultaneous Nadir Overpasses (SNOs) Prediction Service
